Wind_Speed
27 28 28 28 29 30 28 25 23 22 21 20 20 20 19 19 18 17 16 15 14 13 12 11 10 9 9 8 8 7 6 6 5 4 4 4 3 3 3 3 2 3 3 2 2 2 2 2 2
29 29 30 31 31 31 29 26 24 23 23 22 22 22 21 21 19 18 17 16 16 15 14 13 12 11 11 10 10 9 8 7 7 6 6 5 5 5 5 4 4 4 4 4 4 4 3 3 4
31 31 32 33 33 31 29 28 27 25 25 24 24 23 23 22 21 20 19 18 17 16 15 15 14 13 12 12 11 11 10 9 9 8 7 7 7 6 6 6 6 6 6 6 5 5 5 5 5
32 33 34 35 34 32 31 29 28 28 27 26 25 25 25 24 23 22 21 20 19 18 17 17 16 15 14 13 13 13 12 11 11 10 9 9 9 8 8 8 8 8 7 7 7 7 7 7 7
33 34 36 36 35 33 32 31 30 30 29 28 27 27 26 25 25 24 23 22 20 19 19 18 17 17 16 15 14 14 14 13 13 12 12 12 11 11 10 10 10 9 9 9 9 9 9 9 9
35 36 37 36 35 35 34 33 31 31 31 30 29 28 28 27 27 26 24 23 22 21 20 20 19 19 18 17 17 16 16 15 15 14 14 14 13 13 13 12 11 11 11 11 11 11 11 11 11
36 37 37 36 35 36 36 34 33 32 32 31 31 29 29 29 28 27 26 25 24 23 23 22 21 21 20 20 19 19 18 18 17 17 16 15 15 15 15 14 14 13 13 13 13 13 13 13 13
36 37 37 36 36 36 36 35 34 34 34 33 32 31 30 29 29 29 28 27 26 26 25 24 24 23 23 22 22 21 21 20 19 19 18 18 17 17 17 16 16 16 15 15 15 15 15 15 15
36 38 37 35 35 36 36 36 35 35 35 35 34 32 31 31 31 30 30 29 28 28 27 27 26 26 25 25 24 24 23 22 21 21 21 20 20 19 19 18 18 18 17 17 17 17 17 17 17
36 36 35 34 35 35 35 36 35 36 36 35 35 33 33 33 33 32 32 32 31 30 29 28 28 28 27 27 26 25 24 23 23 22 22 22 22 22 21 21 20 20 20 19 19 19 19 19 19
35 35 34 33 33 34 35 36 36 37 37 36 35 34 34 34 34 34 33 33 32 31 30 30 30 29 28 28 27 27 26 25 24 24 24 23 23 23 23 23 22 22 22 21 21 21 22 21 21
33 33 33 33 33 33 34 35 36 37 36 36 35 35 35 35 35 34 34 34 34 34 32 32 32 31 30 29 29 28 28 27 27 27 26 26 25 25 24 24 24 24 24 24 24 23 23 24 24
32 32 32 32 33 34 33 34 36 36 36 36 36 35 36 36 35 35 35 35 36 35 34 34 33 32 31 31 30 30 30 29 29 29 29 28 28 27 26 25 26 26 26 26 26 26 26 26 26
29 31 32 32 33 34 34 35 36 35 36 36 36 36 36 36 36 35 35 36 36 36 36 35 35 34 33 32 31 31 30 31 30 30 30 30 29 29 28 28 28 28 28 29 29 29 28 28 28
27 30 31 32 32 33 34 35 36 35 36 36 36 37 37 37 37 37 36 36 36 37 36 36 36 35 35 33 32 32 31 31 31 32 31 31 30 30 30 30 30 30 31 31 31 31 31 31 31
26 29 31 31 32 33 34 35 34 35 36 36 37 37 37 37 38 38 37 37 36 37 37 37 36 36 35 35 34 33 32 32 32 33 32 32 32 32 33 33 32 32 32 33 33 33 33 33 33
27 29 29 30 31 31 33 34 34 35 36 36 37 37 37 37 37 38 38 37 37 37 37 37 37 37 36 36 36 35 34 34 34 34 34 34 35 34 34 35 34 34 34 34 35 34 34 34 34
26 27 28 29 29 30 31 32 33 34 35 35 37 38 37 37 37 38 38 38 37 37 37 38 38 39 38 38 37 37 36 36 36 36 36 37 37 37 37 37 36 37 36 36 37 37 36 36 36
25 26 27 27 29 30 30 30 30 32 34 34 35 37 37 37 36 36 37 38 38 38 37 38 39 39 39 39 39 38 38 37 37 37 37 38 38 39 39 39 39 39 38 38 38 38 38 38 38
24 25 26 26 27 29 29 30 30 31 32 33 34 36 37 37 37 36 36 37 38 39 38 39 39 40 40 40 40 40 39 38 39 40 40 39 39 40 40 41 41 41 41 41 40 40 39 39 39
23 23 25 26 27 27 29 30 29 29 31 32 33 35 36 36 37 37 36 36 36 37 38 39 40 40 41 41 41 41 41 41 41 41 41 40 41 41 42 42 42 42 42 42 42 42 41 40 41
23 22 24 25 26 27 28 29 28 28 29 29 31 34 35 35 35 36 36 36 36 36 38 39 40 41 41 42 42 42 42 42 42 42 42 42 41 41 43 43 44 44 44 43 43 42 41 41 41
22 22 23 25 26 27 28 29 28 27 28 29 29 31 32 33 34 36 36 36 36 36 37 38 39 41 42 43 43 43 43 43 43 43 44 43 43 42 43 44 44 44 44 44 43 42 41 41 42
21 23 24 25 26 26 26 28 27 27 27 29 29 30 31 32 34 35 36 36 36 37 38 38 39 41 42 44 44 45 45 45 45 45 45 45 45 44 43 45 46 45 44 44 43 43 42 42 42
19 21 22 24 25 26 26 27 27 27 27 29 30 31 32 32 33 35 36 37 37 38 38 39 39 40 42 44 45 46 46 46 47 47 47 47 46 46 46 45 46 46 45 45 44 45 44 44 43
19 19 20 22 23 24 25 27 26 28 29 30 31 31 33 34 34 35 36 37 37 38 39 40 40 40 42 43 46 47 48 48 48 48 48 48 47 47 46 46 46 46 46 46 46 47 46 45 44
19 19 20 22 23 23 24 24 25 27 28 30 30 31 32 34 34 36 37 38 38 39 40 41 42 42 43 43 45 47 49 49 49 50 49 49 48 47 47 46 46 47 47 47 47 47 47 46 46
17 19 20 22 23 23 24 23 23 25 28 30 30 30 31 33 34 35 37 38 39 40 40 42 43 43 44 45 45 46 48 51 51 50 49 49 48 47 46 46 47 47 48 48 49 48 48 48 48
17 19 20 22 23 24 25 23 22 23 25 27 28 29 30 31 33 34 35 36 39 40 41 42 43 44 45 46 47 47 47 49 50 51 50 50 49 48 47 47 47 47 48 49 50 49 49 49 49
17 18 20 22 23 24 25 24 23 24 24 25 26 26 28 30 31 32 34 35 37 39 41 43 44 46 47 47 47 48 48 48 48 49 50 50 48 48 48 48 48 48 49 49 49 49 49 49 49
Wind_Direction
247 246 245 243 242 242 241 241 241 240 239 239 240 239 237 236 233 230 226 227 230 232 234 236 239 239 242 243 246 247 250 253 257 265 271 274 278 283 287 287 282 275 273 262 254 256 258 265 281
247 245 244 242 242 243 242 241 240 240 240 240 240 239 236 235 234 232 229 229 232 234 236 237 240 242 244 246 248 250 251 253 256 261 265 268 270 272 275 273 271 271 273 265 261 258 260 269 280
247 244 242 242 243 244 244 242 241 240 240 239 239 239 237 235 235 234 232 231 232 234 237 238 239 242 245 247 251 253 254 254 255 257 261 263 265 268 271 268 267 268 268 265 263 261 262 269 278
247 244 242 242 243 244 244 244 242 240 238 238 238 238 237 235 235 234 233 233 233 234 237 238 240 242 245 249 252 255 256 256 256 256 259 262 264 266 267 266 266 265 265 265 265 263 265 271 277
247 244 243 243 243 244 244 243 241 240 237 237 238 239 238 235 234 234 233 233 234 235 237 239 241 243 246 249 252 256 257 258 257 257 259 260 263 263 264 265 264 262 262 263 263 267 268 271 275
247 245 244 244 243 243 243 243 241 240 237 236 237 238 238 235 234 234 234 234 236 238 239 241 243 244 246 249 251 255 257 259 258 257 258 260 263 263 263 262 262 262 261 262 263 266 269 270 273
247 246 246 245 243 243 243 242 241 239 237 236 236 237 237 236 234 234 235 235 237 240 241 243 246 247 247 249 252 254 257 258 258 258 259 261 262 263 262 262 261 262 263 263 264 265 269 272 273
247 246 246 245 244 243 242 241 239 237 237 236 235 235 235 236 235 235 236 237 237 240 242 244 246 248 249 251 253 254 256 257 257 258 259 261 262 262 262 262 261 261 262 264 266 267 270 273 274
246 246 245 245 244 242 241 241 238 237 237 236 235 236 235 236 236 236 237 237 237 239 242 244 246 249 251 252 253 254 255 255 256 258 259 260 261 262 262 262 262 262 263 264 266 267 269 272 274
245 245 245 244 242 240 240 240 239 237 236 235 235 236 235 235 236 236 237 238 239 240 241 244 246 249 250 252 253 254 254 255 256 258 259 259 259 260 261 262 262 263 263 264 265 268 269 270 272
244 243 242 240 239 239 239 239 238 236 236 235 236 237 237 236 237 237 238 239 240 241 242 244 246 248 250 251 252 253 254 254 255 257 258 259 259 259 259 260 261 262 263 264 266 268 270 270 270
243 241 239 237 237 238 238 238 238 236 234 235 236 236 238 238 238 239 240 241 241 241 243 245 247 249 249 250 252 253 253 254 255 255 256 257 258 258 258 258 260 261 261 263 266 268 269 271 271
241 238 236 237 236 237 238 236 236 235 234 235 236 236 237 238 239 240 241 242 243 242 243 245 247 247 248 250 252 253 254 255 256 256 256 256 257 258 258 260 259 261 262 263 265 267 268 270 271
242 237 235 236 236 237 238 236 235 234 234 235 235 236 237 237 238 240 242 244 245 244 244 245 246 248 249 252 255 256 256 256 256 256 256 257 257 258 258 260 260 260 262 263 265 267 269 270 271
242 238 237 236 237 238 239 236 235 235 236 236 235 236 237 238 240 241 243 246 246 245 245 245 246 248 251 253 254 256 257 258 258 256 255 256 257 257 258 260 261 261 263 265 265 266 268 270 271
241 239 238 237 238 239 240 237 236 237 238 237 236 237 238 239 241 241 242 245 245 246 246 246 247 248 250 252 254 255 257 257 258 256 255 255 257 257 258 260 262 263 263 265 266 266 268 269 269
240 239 239 238 238 238 239 238 237 239 238 238 237 238 239 241 241 241 243 245 245 245 247 247 247 248 250 253 254 255 256 258 258 257 256 256 257 259 259 260 262 263 264 266 267 267 268 269 269
243 242 241 240 239 239 238 238 238 239 240 240 239 239 240 242 242 242 243 245 245 245 246 246 248 249 251 253 254 255 257 259 259 258 258 257 258 259 260 261 262 263 264 266 266 267 267 268 268
245 244 241 239 239 239 239 238 239 239 240 242 241 240 241 242 243 243 244 244 245 245 246 247 248 250 252 253 254 256 258 260 260 260 259 258 259 260 262 262 262 263 265 266 267 267 268 268 268
246 243 241 240 240 241 241 241 243 243 244 244 243 241 241 240 242 243 244 245 245 246 247 248 250 251 253 255 255 257 257 259 260 259 258 259 260 261 262 263 263 263 264 265 266 267 268 268 268
247 245 242 241 242 243 244 243 245 245 246 246 244 242 241 240 241 243 246 247 247 248 248 249 250 252 254 255 255 257 257 259 260 261 261 260 261 262 262 263 264 264 264 265 266 267 267 267 267
248 248 244 244 244 246 246 247 244 246 245 246 246 243 243 242 244 246 246 247 249 251 251 251 252 253 254 255 256 257 258 260 261 262 262 261 263 264 265 265 264 264 264 264 265 265 266 266 266
252 250 249 247 247 247 247 249 248 249 246 246 248 245 244 244 245 246 247 249 251 252 253 253 254 254 255 256 257 258 259 260 261 262 263 263 265 266 266 265 265 264 264 263 264 265 266 266 267
253 252 253 250 249 250 248 252 252 250 249 247 247 245 244 246 249 249 249 251 253 254 255 257 257 256 257 257 258 259 260 260 261 263 264 264 265 265 266 264 264 263 263 263 263 264 266 266 267
252 252 253 253 253 255 253 256 257 255 253 250 247 246 246 248 251 252 253 255 256 257 258 259 259 259 258 259 260 260 261 261 261 263 263 262 263 264 264 264 264 262 262 261 261 262 265 267 266
250 252 255 258 260 260 258 259 260 261 259 257 251 251 253 253 253 256 258 259 259 260 261 261 261 261 262 262 262 261 261 260 260 261 261 261 262 262 263 264 263 262 262 263 263 263 264 265 265
251 253 255 259 263 268 267 267 265 263 261 262 257 254 256 257 255 257 259 261 262 262 263 263 264 264 264 265 265 263 262 261 260 261 261 261 261 262 262 263 263 262 262 263 264 264 263 264 265
254 255 255 259 265 273 275 276 274 268 263 262 260 259 258 256 256 258 259 261 263 264 265 265 265 266 265 266 266 265 264 262 261 261 260 260 260 260 261 262 263 262 263 263 262 263 263 264 264
258 255 259 263 267 275 278 281 280 276 270 269 268 263 260 258 259 261 263 265 265 265 266 267 266 267 267 267 267 266 264 263 261 261 260 259 258 259 260 262 263 263 264 264 264 264 263 263 264
262 262 265 268 273 276 280 283 281 278 273 274 273 267 263 264 264 264 266 268 267 267 268 268 269 269 269 268 268 266 264 263 263 262 259 258 258 259 260 262 263 264 265 265 264 264 264 263 265
Height
5814 5816 5817 5818 5820 5821 5823 5827 5830 5832 5834 5836 5838 5840 5842 5845 5848 5852 5852 5852 5854 5855 5857 5857 5858 5859 5860 5861 5862 5863 5863 5864 5864 5865 5865 5866 5866 5867 5867 5867 5868 5868 5868 5869 5869 5869 5869 5870 5870
5808 5810 5811 5812 5813 5815 5820 5823 5826 5828 5831 5833 5834 5836 5838 5841 5844 5846 5848 5849 5851 5853 5854 5855 5856 5857 5858 5859 5860 5861 5861 5862 5863 5864 5864 5865 5865 5865 5866 5866 5867 5867 5867 5868 5868 5868 5869 5869 5869
5801 5803 5805 5805 5807 5811 5816 5819 5822 5824 5826 5828 5830 5832 5835 5837 5840 5843 5845 5847 5848 5850 5851 5853 5854 5855 5856 5857 5858 5859 5859 5860 5861 5862 5862 5863 5863 5864 5864 5865 5865 5866 5866 5867 5867 5867 5867 5867 5868
5794 5796 5797 5799 5802 5807 5810 5814 5817 5819 5821 5824 5826 5828 5831 5834 5837 5839 5841 5843 5845 5847 5848 5850 5851 5852 5854 5855 5856 5856 5857 5858 5859 5860 5860 5861 5862 5862 5863 5863 5864 5864 5865 5865 5865 5865 5866 5866 5866
5786 5788 5789 5792 5796 5801 5804 5807 5810 5813 5816 5819 5821 5823 5826 5829 5832 5835 5837 5839 5841 5843 5845 5847 5848 5849 5851 5852 5853 5854 5855 5855 5856 5857 5858 5859 5859 5860 5861 5861 5862 5862 5863 5863 5863 5864 5864 5864 5864
5778 5779 5782 5785 5790 5794 5797 5801 5804 5807 5810 5813 5815 5818 5821 5824 5827 5830 5833 5835 5837 5839 5841 5843 5845 5846 5847 5848 5850 5851 5852 5852 5853 5854 5855 5856 5857 5857 5858 5859 5859 5860 5860 5861 5861 5861 5862 5862 5862
5770 5771 5774 5778 5783 5787 5791 5794 5798 5801 5804 5807 5810 5813 5815 5819 5822 5825 5828 5830 5833 5835 5837 5839 5840 5842 5843 5845 5846 5847 5848 5849 5850 5851 5852 5852 5853 5854 5855 5856 5856 5857 5858 5858 5858 5859 5859 5859 5859
5761 5764 5766 5771 5776 5780 5784 5787 5790 5794 5797 5801 5804 5807 5810 5814 5817 5820 5822 5825 5827 5830 5832 5834 5836 5837 5839 5840 5842 5843 5843 5845 5846 5847 5848 5849 5849 5850 5851 5852 5853 5854 5855 5855 5856 5856 5856 5856 5856
5752 5756 5759 5764 5768 5772 5775 5779 5783 5786 5790 5794 5797 5801 5805 5808 5811 5814 5817 5819 5822 5825 5827 5829 5831 5832 5834 5835 5836 5838 5838 5839 5841 5842 5843 5844 5845 5846 5847 5848 5849 5850 5851 5852 5852 5852 5853 5853 5853
5744 5747 5752 5756 5760 5764 5767 5771 5775 5779 5783 5787 5790 5794 5798 5801 5805 5808 5811 5814 5816 5819 5821 5823 5825 5826 5828 5829 5831 5832 5833 5834 5835 5837 5838 5839 5840 5841 5843 5844 5845 5846 5847 5847 5848 5848 5849 5849 5849
5735 5739 5744 5748 5752 5756 5759 5763 5767 5771 5776 5780 5784 5788 5791 5795 5798 5801 5805 5807 5810 5812 5815 5817 5819 5820 5821 5823 5824 5826 5827 5828 5830 5831 5832 5833 5834 5836 5837 5839 5840 5841 5842 5843 5843 5844 5844 5844 5844
5728 5732 5737 5741 5744 5748 5751 5756 5759 5764 5770 5773 5777 5781 5784 5787 5791 5794 5797 5800 5803 5806 5808 5810 5812 5813 5815 5816 5818 5820 5821 5823 5824 5825 5826 5827 5828 5830 5831 5833 5834 5835 5836 5837 5838 5839 5839 5839 5839
5722 5726 5730 5734 5737 5740 5744 5748 5752 5757 5761 5764 5768 5772 5776 5780 5783 5787 5790 5793 5795 5798 5801 5803 5805 5806 5808 5810 5811 5813 5814 5816 5817 5818 5819 5820 5822 5823 5825 5826 5827 5829 5830 5831 5832 5833 5833 5833 5833
5716 5720 5723 5727 5730 5733 5737 5741 5745 5750 5753 5757 5761 5765 5768 5772 5776 5779 5782 5785 5788 5791 5793 5795 5797 5799 5800 5802 5804 5805 5807 5808 5809 5810 5811 5813 5814 5816 5818 5819 5821 5822 5823 5824 5825 5826 5827 5827 5827
5711 5714 5717 5720 5723 5727 5730 5734 5738 5742 5745 5749 5753 5757 5760 5764 5768 5771 5775 5778 5780 5783 5785 5787 5789 5791 5793 5795 5797 5798 5799 5801 5801 5802 5804 5805 5807 5809 5810 5812 5813 5814 5816 5817 5818 5818 5819 5820 5820
5705 5708 5711 5714 5716 5719 5724 5727 5731 5734 5737 5741 5744 5748 5752 5756 5760 5763 5766 5770 5772 5775 5777 5779 5781 5784 5786 5788 5789 5791 5792 5793 5794 5795 5796 5798 5799 5801 5803 5804 5805 5807 5808 5809 5810 5810 5811 5811 5812
5699 5702 5704 5708 5710 5712 5716 5720 5724 5726 5729 5732 5736 5740 5744 5748 5752 5755 5758 5761 5764 5766 5769 5771 5774 5776 5778 5780 5782 5783 5784 5785 5786 5787 5789 5790 5792 5793 5794 5796 5797 5798 5800 5801 5801 5802 5802 5803 5803
5694 5696 5699 5701 5704 5706 5709 5713 5717 5719 5721 5724 5728 5732 5736 5740 5743 5746 5749 5752 5755 5758 5760 5763 5765 5768 5770 5772 5773 5775 5776 5777 5778 5779 5781 5782 5783 5784 5786 5787 5788 5790 5791 5792 5793 5793 5793 5794 5794
5689 5692 5694 5697 5699 5701 5704 5707 5710 5712 5714 5716 5719 5723 5727 5731 5735 5738 5741 5744 5746 5749 5751 5754 5756 5759 5761 5763 5765 5767 5768 5769 5770 5770 5772 5773 5775 5775 5777 5778 5779 5781 5782 5782 5783 5783 5784 5784 5784
5685 5687 5689 5692 5693 5696 5698 5701 5704 5705 5707 5709 5712 5714 5718 5723 5726 5730 5732 5735 5737 5740 5743 5745 5747 5749 5751 5753 5755 5757 5759 5760 5761 5761 5762 5764 5765 5766 5767 5769 5770 5771 5772 5772 5773 5773 5774 5774 5774
5681 5683 5685 5687 5689 5691 5693 5696 5698 5699 5700 5702 5704 5707 5710 5715 5718 5722 5725 5727 5729 5731 5733 5736 5738 5740 5741 5743 5745 5747 5749 5750 5752 5752 5753 5754 5755 5756 5757 5758 5759 5760 5761 5762 5762 5763 5763 5764 5764
5677 5678 5680 5682 5684 5685 5688 5689 5693 5693 5694 5696 5698 5700 5703 5707 5711 5713 5716 5718 5721 5722 5724 5726 5728 5730 5731 5733 5735 5737 5739 5741 5742 5742 5743 5743 5744 5745 5747 5747 5748 5749 5750 5751 5751 5752 5753 5753 5754
5673 5674 5676 5678 5679 5681 5682 5683 5687 5688 5689 5690 5692 5694 5697 5700 5703 5705 5707 5710 5712 5713 5715 5716 5718 5719 5721 5723 5724 5726 5727 5729 5730 5731 5732 5732 5733 5734 5735 5736 5737 5737 5738 5740 5741 5741 5742 5743 5743
5669 5670 5671 5672 5674 5675 5677 5677 5680 5682 5683 5685 5686 5688 5691 5693 5695 5696 5699 5701 5702 5704 5705 5706 5707 5709 5710 5711 5712 5714 5715 5717 5718 5720 5720 5721 5722 5723 5723 5724 5725 5726 5727 5729 5730 5731 5731 5732 5733
5666 5667 5667 5667 5668 5670 5671 5672 5675 5677 5678 5679 5680 5682 5684 5685 5687 5689 5691 5692 5693 5695 5696 5696 5697 5698 5698 5699 5700 5702 5703 5704 5706 5707 5708 5709 5710 5711 5712 5712 5713 5714 5716 5717 5719 5720 5721 5721 5722
5662 5663 5664 5664 5664 5665 5666 5667 5671 5671 5672 5672 5674 5675 5676 5677 5679 5681 5682 5684 5685 5685 5686 5686 5686 5686 5687 5687 5688 5689 5690 5691 5693 5694 5695 5696 5698 5699 5700 5700 5701 5703 5704 5705 5706 5708 5709 5710 5711
5659 5660 5661 5661 5660 5661 5662 5663 5665 5665 5665 5665 5666 5668 5669 5670 5671 5673 5674 5675 5675 5675 5675 5675 5675 5675 5675 5675 5675 5676 5677 5678 5679 5680 5681 5683 5685 5687 5688 5688 5689 5691 5692 5693 5694 5695 5697 5698 5699
5656 5657 5657 5657 5656 5656 5657 5658 5659 5659 5659 5660 5660 5660 5660 5662 5663 5664 5665 5665 5665 5665 5665 5664 5664 5664 5664 5663 5663 5663 5664 5665 5666 5667 5669 5670 5672 5674 5675 5676 5677 5678 5679 5680 5682 5683 5684 5686 5687
5653 5654 5653 5653 5653 5653 5652 5656 5655 5653 5653 5653 5653 5653 5653 5654 5654 5655 5655 5655 5655 5654 5654 5653 5652 5652 5651 5651 5650 5650 5651 5651 5652 5654 5655 5657 5659 5661 5663 5664 5665 5665 5666 5667 5669 5670 5671 5673 5674
5649 5650 5650 5650 5650 5648 5648 5653 5649 5648 5647 5646 5646 5646 5645 5645 5645 5646 5646 5645 5644 5643 5642 5641 5640 5639 5639 5638 5637 5637 5638 5638 5639 5641 5643 5644 5646 5648 5650 5651 5652 5653 5654 5655 5656 5657 5658 5660 5662